Regional Weather Roundup
Issued by NWS

Home | Current Version | Previous Version | Graphics & Text | Print | Product List | Glossary On
Versions: 1 2 3 4 5 6 7 8 9 10 11 12 13 14 15 16 17 18 19 20 21 22 23 24 25 26 27 28 29 30 31 32 33 34 35 36 37 38 39 40 41 42 43 44 45 46 47 48 49 50
000
ASUS43 KIND 291259
RWRIN

WEATHER ROUNDUP FOR INDIANA
NATIONAL WEATHER SERVICE INDIANAPOLIS IN
900 AM EDT TUE JUL 29 2014

NOTE: "FAIR" INDICATES FEW OR NO CLOUDS BELOW 12,000 FEET WITH NO
SIGNIFICANT WEATHER AND/OR OBSTRUCTIONS TO VISIBILITY.

* - STATION DOES NOT REPORT WEATHER SUCH AS PRECIPITATION OR FOG.

+ - STATION NOT QUALITY CONTROLLED BY THE NATIONAL WEATHER SERVICE.
    USE DATA WITH CAUTION...ESPECIALLY DEWPOINT AND RELATIVE
    HUMIDITY OBSERVATIONS.

INZ001>003-010>013-019-020-291400-
NORTHWEST INDIANA

CITY           SKY/WX    TMP DP  RH WIND       PRES   REMARKS
GARY /AIRPORT/ PTSUNNY   63  55  77 SW6       30.06S
KNOX *+        SUNNY     55  51  87 SW3       30.05S
MONTICELLO +   SUNNY     56  53  91 CALM      30.07R
RENSSELAER +   SUNNY     57  57 100 W6        30.08R
VALPARAISO     PTSUNNY   59  53  80 SW6       30.06S

$$

LMZ046-743>745-291400-
SOUTHERN LAKE MICHIGAN

STATION/POSITION TIME  TEMP WIND        PRES
                       AIR  DIR/SP/G
                 (UTC) (F)  (DEG/KT/KT) (MB)
MICHIGAN CITY    1200   58  190/  8/ 10   N/A

$$

INZ004-005-014>016-021>024-291400-
NORTH CENTRAL INDIANA

CITY           SKY/WX    TMP DP  RH WIND       PRES   REMARKS
ELKHART        CLOUDY    55  54  94 CALM      30.05
GOSHEN         CLOUDY    55  51  86 SW5       30.05S
SOUTH BEND     PTSUNNY   56  51  84 SW3       30.05S
WARSAW +       MOSUNNY   54  52  94 W5        30.06S

$$

INZ006>009-017-018-025>027-291400-
NORTHEAST INDIANA

CITY           SKY/WX    TMP DP  RH WIND       PRES   REMARKS
ANGOLA *+      SUNNY     57  52  82 W3        30.05R
AUBURN +       SUNNY     55  50  82 W6        30.06S
FORT WAYNE     MOSUNNY   55  51  86 SW6       30.06S

$$

INZ028-029-035-036-043>045-051>053-291400-
WEST CENTRAL INDIANA

CITY           SKY/WX    TMP DP  RH WIND       PRES   REMARKS
GREENCASTLE +  SUNNY     59  52  77 NW3       30.09S
LAFAYETTE      SUNNY     56  53  90 SW3       30.07F
TERRE HAUTE    PTSUNNY   61  54  77 NW3       30.10R

$$

INZ030>032-037>040-046>048-054>057-064-065-291400-
CENTRAL INDIANA

CITY           SKY/WX    TMP DP  RH WIND       PRES   REMARKS
ANDERSON       SUNNY     55  52  88 CALM      30.09
COLUMBUS       SUNNY     55  54  94 NW5       30.09R
INDIANAPOLIS   MOSUNNY   59  51  75 CALM      30.08R
-EAGLE CREEK   SUNNY     59  50  72 W3        30.07S
KOKOMO *+      SUNNY     57  54  88 W3        30.07F
MT COMFORT *+  SUNNY     59  59 100 CALM      30.08S
SHELBYVILLE    SUNNY     59  53  80 N5        30.08R
ZIONSVILLE +   SUNNY     59  51  76 W5        30.09R

$$

INZ033-034-041-042-049-050-058-059-291400-
EAST CENTRAL INDIANA

CITY           SKY/WX    TMP DP  RH WIND       PRES   REMARKS
MUNCIE         SUNNY     54  50  86 CALM      30.07S

$$

INZ060-061-067>069-081>083-085>088-291400-
SOUTHWEST INDIANA

CITY           SKY/WX    TMP DP  RH WIND       PRES   REMARKS
EVANSVILLE     CLOUDY    62  51  67 W5        30.11S

$$

INZ062-063-066-070>080-084-089>092-291400-
SOUTH CENTRAL AND SOUTHEAST INDIANA

CITY           SKY/WX    TMP DP  RH WIND       PRES   REMARKS
BLOOMINGTON    SUNNY     60  52  74 CALM      30.09R

$$




USA.gov is the U.S. government's official web portal to all federal, state and local government web resources and services.